CW6185 Weather Reports


time (UTC)temp
C
wind
direction
speed
KPH
gust
KPH
rain 1hr
cm
rain 24hr
cm
rain mn
cm
humidity
%
barometer
mb
20260507112012 13 0 0.0 0.0 0.00 0.00 0.00 76 1014.2
20260507105015 13 0 0.0 0.0 0.00 0.00 0.00 73 1014.2
20260507103512 13 0 0.0 0.0 0.00 0.00 0.00 74 1014.2
20260507102012 13 0 0.0 0.0 0.00 0.00 0.00 74 1014.1
20260507100512 13 0 0.0 0.0 0.00 0.00 0.00 75 1014.0
20260507095011 13 0 0.0 0.0 0.00 0.00 0.00 75 1013.9
20260507093514 13 0 0.0 0.0 0.00 0.00 0.00 77 1013.7
20260507092012 12 0 0.0 0.0 0.00 0.00 0.00 79 1013.6
20260507090511 12 0 0.0 0.0 0.00 0.00 0.00 80 1013.3
20260507085011 12 0 0.0 0.0 0.00 0.00 0.00 81 1013.3
20260507083511 12 0 0.0 0.0 0.00 0.00 0.00 81 1013.2
20260507082011 11 0 0.0 0.0 0.00 0.00 0.00 81 1013.1
20260507080511 11 0 0.0 0.0 0.00 0.00 0.00 81 1012.9
20260507075011 11 0 0.0 0.0 0.00 0.00 0.00 82 1012.7
20260507073511 11 0 0.0 0.0 0.00 0.00 0.00 83 1012.6
20260507072011 11 0 0.0 0.0 0.00 0.00 0.00 83 1012.5
20260507070510 11 0 0.0 0.0 0.00 0.00 0.00 84 1012.3
20260507065010 11 0 0.0 0.0 0.00 0.00 0.00 85 1012.2
20260507063510 11 0 0.0 0.0 0.00 0.00 0.00 86 1012.1
20260507062010 11 0 0.0 0.0 0.00 0.00 0.00 86 1012.0
20260507060510 11 0 0.0 0.0 0.00 0.00 0.00 86 1011.7
20260507055010 11 0 0.0 0.0 0.00 0.00 0.00 86 1011.5
20260507053510 10 0 0.0 0.0 0.00 0.00 0.00 86 1011.5
20260507052010 10 0 0.0 0.0 0.00 0.00 0.00 86 1011.3
20260507050510 10 0 0.0 0.0 0.00 0.00 0.00 86 1011.0
20260507045009 10 0 0.0 0.0 0.00 0.00 0.00 86 1010.8
20260507043514 10 0 0.0 0.0 0.00 0.00 0.00 86 1010.7
20260507042014 10 0 0.0 0.0 0.00 0.00 0.00 87 1010.4
20260507040514 10 0 0.0 0.0 0.00 0.00 0.00 87 1010.3
20260507035014 10 0 0.0 0.0 0.00 0.00 0.00 87 1010.3
20260507033514 10 0 0.0 0.0 0.00 0.00 0.00 87 1010.3
20260507030514 10 0 0.0 0.0 0.00 0.00 0.00 87 1009.9
20260507025013 11 0 0.0 0.0 0.00 0.00 0.00 87 1009.9
20260507020513 11 0 0.0 0.0 0.00 0.00 0.00 86 1009.5
20260507015013 11 0 0.0 0.0 0.00 0.00 0.00 86 1009.5
20260507013513 11 0 0.0 0.0 0.00 0.00 0.00 86 1009.3
20260507012013 11 0 0.0 0.0 0.00 0.00 0.00 86 1009.3
20260507010513 11 0 0.0 0.0 0.00 0.00 0.00 86 1009.2
20260507005013 11 0 0.0 0.0 0.00 0.00 0.00 86 1009.2
20260507003516 11 0 0.0 0.0 0.00 0.00 0.00 86 1009.2
20260507002015 11 0 0.0 0.0 0.00 0.00 0.00 86 1009.1
20260507000512 11 0 0.0 0.0 0.00 0.00 0.00 86 1009.1
20260506235012 11 0 0.0 0.0 0.00 0.00 0.00 86 1009.1
20260506233515 11 0 0.0 0.0 0.00 0.00 0.00 86 1009.1
20260506232012 11 0 0.0 0.0 0.00 0.00 0.00 86 1009.0
20260506230512 11 0 0.0 0.0 0.00 0.00 0.00 86 1008.9
20260506225015 11 0 0.0 0.0 0.00 0.00 0.00 86 1008.8
20260506223512 11 0 0.0 0.0 0.00 0.00 0.00 86 1008.7
20260506220511 11 0 0.0 0.0 0.00 0.00 0.00 85 1008.5
20260506213511 11 0 0.0 0.0 0.00 0.41 0.41 84 1008.5
20260506210511 11 0 0.0 0.0 0.00 0.41 0.41 84 1008.2
20260506205011 12 0 0.0 0.0 0.00 0.41 0.41 84 1008.0
20260506203511 12 0 0.0 0.0 0.00 0.41 0.41 83 1007.9
20260506155014 18 0 0.0 0.0 0.00 0.41 0.41 63 1004.7
20260506153511 19 0 0.0 0.0 0.00 0.41 0.41 61 1004.7
20260506152011 19 0 0.0 0.0 0.00 0.41 0.41 61 1004.6
20260506150511 19 0 0.0 0.0 0.00 0.41 0.41 62 1004.5
20260506145010 19 0 0.0 0.0 0.00 0.41 0.41 61 1004.5
20260506142013 20 0 0.0 0.0 0.00 0.41 0.41 60 1004.4
20260506140510 20 0 0.0 0.0 0.00 0.41 0.41 60 1004.4
20260506135013 20 0 0.0 0.0 0.00 0.41 0.41 61 1004.4
20260506133510 20 0 0.0 0.0 0.00 0.41 0.41 60 1004.5
20260506132010 20 0 0.0 0.0 0.00 0.41 0.41 61 1004.4
20260506130510 19 0 0.0 0.0 0.00 0.41 0.41 61 1004.6
20260506125010 19 0 0.0 0.0 0.00 0.41 0.41 60 1004.6
20260506123509 20 0 0.0 0.0 0.00 0.41 0.41 57 1004.6
20260506122009 20 0 0.0 0.0 0.00 0.41 0.41 58 1004.6
20260506120514 19 0 0.0 0.0 0.00 0.41 0.41 60 1004.6
20260506115014 19 0 0.0 0.0 0.00 0.41 0.41 61 1004.8
20260506113517 18 0 0.0 0.0 0.00 0.41 0.41 66 1004.8